{"data":{"norad_id":53634,"epoch":"2026-09-20T22:00:03.000096Z","epoch_age_seconds":45679,"freshness":"FRESH","line1":"1 53634U 22104AY  26263.91670139  .00047730  00000+0  14162-2 0  9991","line2":"2 53634  53.1599  59.5619 0001199  81.2801 318.7312 15.34368555  5881","mean_motion":15.34368555,"eccentricity":0.0001199,"inclination_deg":53.1599,"raan_deg":59.5619,"arg_perigee_deg":81.2801,"mean_anomaly_deg":318.7312,"bstar":0.0014162,"rev_number":588,"period_min":93.849681375933,"perigee_km":461.97647501899,"apogee_km":463.61693092097,"semimajor_km":6840.93370297,"source":"CELESTRAK","updated_at":"2026-09-21T09:00:32.945745Z"}}